Location: Niedergestelen
(46.3129°N, 7.7822°E)
Time: 06:22:04
(UTC+00:00)

CENTAUR R/B - Pass Details

Date: 01 December 2020
Orbit: 750 x 1438 km, 63.4° (Epoch: 11 January)

Event Time Altitude Azimuth Distance (km) Brightness Sun altitude
Rises 19:50:01 0° 244° (WSW) 3,467 6.0 -41.6°
Reaches altitude 10° 19:52:28 10° 251° (WSW) 2,614 5.2 -42.1°
Enters shadow 19:54:58 25° 266° (W) 1,860 4.3 -42.5°
